Theta_e
328 328 328 328 330 330 330 329 330 330 330 330 330 331 330 329 330 329 330 330 329 330 329 329 329 328 327 326 327 326 327 327 328 328 329 328 329 322 319 321 322 324 326 328 329 330 330 331 331 331 332 332 331 331 331 331 331 333 332 332 329 328 329 329 327 326 326 327 326 325 326 326 325 325 325 326 326 326 326 325 325 325 325 325 325
329 330 328 329 329 330 330 331 330 331 330 330 330 329 329 329 330 330 329 329 328 329 328 328 328 327 326 326 327 326 327 327 327 328 328 328 328 325 316 320 322 323 324 326 326 327 328 328 329 329 331 331 330 330 329 330 330 329 328 330 327 327 326 325 325 325 325 324 324 324 324 323 323 323 324 324 324 324 324 324 324 324 324 324 325
330 330 329 330 330 330 330 331 330 330 330 330 331 330 330 329 329 328 328 328 327 328 327 327 326 326 327 327 327 327 327 327 327 328 327 327 327 327 325 317 321 321 323 324 324 324 325 325 326 326 325 326 327 327 327 327 327 328 327 328 325 325 325 324 323 324 324 323 322 323 323 322 322 322 321 321 321 321 320 321 321 322 322 322 322
333 331 330 330 331 330 330 330 330 330 331 331 330 331 330 330 330 329 329 328 326 327 327 326 325 326 327 327 327 327 327 327 327 327 327 327 326 325 326 325 316 319 321 322 320 320 322 322 322 322 322 325 327 327 327 327 328 327 326 325 325 324 323 323 323 323 324 323 323 322 322 321 320 319 319 319 319 319 318 319 319 320 320 320 321
332 333 332 331 331 330 330 330 330 331 331 331 331 330 329 329 329 330 329 328 326 326 328 326 326 326 326 327 327 327 328 327 327 326 326 325 324 324 325 324 324 314 316 319 319 317 319 319 319 318 321 325 325 325 325 326 327 325 324 324 323 323 323 322 322 323 321 322 322 321 320 319 318 318 318 319 319 319 319 319 319 319 319 319 319
333 333 331 331 331 330 330 330 330 331 330 330 329 329 328 328 328 327 324 326 325 325 324 325 325 326 326 327 327 327 327 327 326 325 324 324 324 325 323 321 317 316 321 314 317 317 316 318 317 316 321 323 322 321 322 325 325 323 322 322 322 323 323 321 322 321 321 321 321 320 318 318 318 318 318 318 318 318 318 318 319 320 320 320 320
334 332 332 331 330 330 329 329 330 331 330 329 328 328 329 327 327 325 326 325 325 325 325 324 325 325 326 326 326 327 328 326 326 324 323 324 324 323 320 317 314 317 316 315 312 314 316 316 316 314 318 320 319 319 320 322 322 322 320 320 321 322 322 322 322 321 321 320 318 317 317 317 317 317 318 318 319 319 319 319 318 319 319 319 319
334 334 332 332 330 330 329 330 331 330 330 328 328 327 327 327 327 327 324 323 324 324 325 324 324 324 325 326 326 326 326 325 324 323 323 324 321 319 317 316 314 314 311 312 310 314 313 316 316 313 315 317 317 317 317 320 321 321 320 319 321 323 321 320 320 320 319 317 316 316 316 316 317 317 318 318 318 318 318 318 318 318 318 319 319
334 334 332 331 331 330 330 331 331 330 329 328 328 329 327 327 327 327 326 324 324 324 325 325 324 324 325 325 326 326 326 324 323 322 324 320 316 316 315 314 314 310 310 310 309 310 312 312 316 314 313 313 313 314 314 316 319 319 318 320 322 321 319 318 317 317 316 315 315 315 315 316 316 317 317 317 317 317 317 317 317 317 318 318 319
334 334 332 332 332 331 331 331 331 330 328 328 327 328 328 328 326 327 327 326 324 324 323 324 324 324 323 324 324 324 324 324 322 319 320 315 315 315 313 310 312 311 310 310 308 310 311 310 312 311 310 312 311 313 313 312 316 319 319 319 319 319 317 315 314 313 313 313 314 314 315 315 316 316 316 317 317 316 316 316 316 317 317 317 318
334 333 332 331 331 331 330 331 331 329 328 327 327 329 329 329 327 326 327 327 325 326 325 325 325 322 323 321 323 323 324 322 323 319 320 317 314 312 313 309 310 310 309 309 309 310 310 310 309 309 312 310 311 311 311 311 313 316 316 315 315 315 314 314 314 314 314 314 314 314 314 315 316 316 316 316 316 315 316 316 317 317 316 317 317
333 333 332 330 331 330 331 331 331 330 327 326 326 327 328 328 328 326 326 327 327 326 326 324 323 321 321 321 322 321 322 323 320 318 320 317 313 310 308 307 308 309 308 309 309 309 309 308 308 308 308 308 310 312 310 310 310 313 312 312 312 314 314 314 313 313 313 313 314 315 315 315 316 316 316 315 315 315 316 316 315 316 316 316 315
333 333 331 329 330 330 330 330 330 329 328 327 328 329 329 328 327 327 325 325 325 325 325 324 322 319 319 321 319 321 321 322 318 318 320 315 311 309 308 307 307 308 309 311 310 310 309 307 307 307 306 309 306 306 310 309 308 311 309 309 311 312 313 313 314 313 313 313 313 314 314 315 315 315 314 314 314 314 315 316 315 315 314 315 315
333 333 332 331 330 329 329 329 330 329 328 329 330 326 328 328 326 324 325 324 324 323 324 321 319 316 313 315 316 318 320 320 316 316 317 313 312 310 309 307 306 307 310 308 310 309 308 307 309 307 307 306 305 306 307 305 306 309 307 306 307 310 311 312 313 312 312 312 312 313 313 313 314 314 313 313 314 314 314 314 313 315 316 315 314
335 333 332 331 331 329 328 329 329 329 328 328 328 328 327 326 326 324 323 323 322 321 322 321 316 317 317 312 312 310 313 315 315 311 312 309 310 310 308 305 303 305 308 306 307 309 309 308 309 308 307 306 305 305 306 304 305 304 304 304 305 308 310 311 312 312 311 311 312 312 313 313 313 312 312 313 313 313 312 313 314 314 315 315 313
334 334 332 332 332 330 330 330 329 330 329 328 327 327 327 327 326 325 324 319 320 320 321 321 319 315 312 313 311 310 308 309 307 305 308 307 307 307 305 302 302 305 306 304 305 307 307 307 308 307 306 306 306 307 309 306 305 303 300 299 301 305 307 310 312 311 310 311 312 311 310 311 312 312 311 312 312 312 312 312 313 313 312 313 313
334 334 332 332 333 332 331 330 330 330 330 328 327 328 327 328 327 325 324 321 320 320 319 319 319 318 314 312 308 308 302 303 306 307 309 308 307 307 305 301 301 302 302 304 306 307 305 306 306 306 308 308 308 307 305 305 303 301 298 297 300 301 305 307 310 310 310 310 310 310 309 309 310 311 311 311 311 311 311 312 311 311 312 312 312
333 333 333 331 332 332 332 331 331 331 330 329 328 328 327 326 326 325 324 324 321 319 317 317 318 316 316 315 312 309 306 303 306 303 302 304 305 304 303 302 302 304 302 301 304 305 304 305 306 305 307 306 306 305 304 303 301 299 297 297 300 301 302 304 306 308 309 309 309 309 309 309 309 309 309 310 310 310 310 310 310 310 310 311 311
333 333 333 333 332 333 332 331 331 330 329 329 328 327 327 326 326 324 323 322 320 317 316 315 316 315 315 315 313 312 311 309 301 302 298 302 304 303 303 303 304 306 303 299 303 305 305 306 307 305 306 306 305 304 303 302 300 299 298 298 300 299 300 301 303 304 306 306 307 308 309 309 309 308 308 308 308 308 309 309 309 310 310 310 310
333 333 333 333 333 332 332 331 330 330 327 327 326 327 325 325 324 324 322 321 319 317 316 315 312 311 313 311 310 310 310 309 305 299 295 297 300 304 304 302 306 304 305 301 301 303 305 307 306 304 302 303 303 302 302 300 298 296 295 298 299 298 299 300 300 300 301 303 304 306 307 308 308 308 308 307 307 307 308 308 308 308 309 309 309
334 333 333 333 332 331 331 330 329 328 325 327 326 324 323 322 321 321 321 320 319 317 316 315 315 312 308 308 308 306 305 305 301 300 297 299 297 299 298 303 304 303 304 303 299 303 305 305 304 303 301 302 303 302 300 298 295 295 294 297 297 298 299 300 299 299 298 298 300 302 304 305 306 306 308 308 307 307 307 307 308 308 309 309 308
332 332 332 331 331 331 331 330 329 327 323 326 325 323 322 322 322 321 321 319 318 316 315 315 315 312 307 307 305 304 303 302 300 298 300 302 294 295 297 297 294 297 303 300 298 298 304 305 304 304 303 301 301 300 300 297 294 295 294 294 295 297 298 299 298 298 298 297 298 298 299 301 303 306 307 307 307 307 307 307 308 308 308 308 308
331 330 330 330 329 330 330 329 329 325 323 324 322 322 321 321 321 320 319 318 315 314 314 316 312 310 309 304 304 303 303 302 300 298 298 296 295 296 298 299 294 293 300 300 299 299 302 303 303 302 302 302 300 299 297 295 294 294 294 293 294 295 296 297 297 297 297 297 297 297 299 298 299 302 304 305 306 307 308 307 307 307 308 307 307
329 328 328 328 328 328 329 328 325 324 324 323 322 320 318 318 317 317 316 316 314 312 312 309 307 306 306 306 305 307 303 303 302 300 298 298 298 295 295 297 294 295 301 299 300 297 301 302 300 301 301 301 300 298 296 294 292 293 292 292 293 294 295 296 297 297 296 296 296 296 297 298 298 299 300 303 305 306 307 307 307 307 307 307 306
325 325 324 325 325 326 324 324 324 323 323 324 321 319 319 318 316 315 314 313 311 310 308 307 305 303 304 305 303 303 302 301 301 300 301 297 298 293 296 296 291 293 297 298 297 297 297 301 301 300 300 301 300 299 294 293 292 292 292 291 292 293 294 294 296 296 296 296 296 295 295 296 298 298 299 300 301 302 304 306 307 307 306 306 306
323 323 322 323 323 323 322 321 321 321 320 320 320 320 319 316 315 312 311 311 311 310 308 307 305 305 303 301 301 300 299 300 299 301 298 297 295 294 293 293 293 292 297 297 297 296 297 298 299 299 300 299 298 295 293 292 291 292 292 291 291 293 293 294 294 294 295 295 295 295 295 296 296 298 299 300 300 300 300 302 305 306 306 305 305
322 322 322 320 320 320 319 317 317 317 317 317 317 317 316 316 313 310 311 310 309 307 305 304 303 302 302 300 299 298 298 298 298 299 298 297 298 296 294 290 292 293 293 295 296 295 296 298 298 298 299 297 296 294 292 291 291 293 291 290 290 292 292 292 293 295 295 294 294 295 295 295 296 298 298 298 299 298 299 300 301 301 303 304 304
324 323 321 320 318 318 316 315 314 315 316 316 315 314 314 313 310 309 306 306 305 303 302 303 302 301 299 298 297 296 296 297 298 296 296 297 296 297 294 292 288 286 291 291 291 292 294 294 297 298 297 294 294 293 291 291 292 292 291 290 290 290 292 292 293 294 293 293 294 294 295 295 296 297 296 296 296 296 297 299 299 300 300 301 302
323 323 321 320 319 317 315 314 313 314 314 313 313 312 311 308 306 304 302 303 302 301 301 300 300 298 297 297 295 295 295 295 294 295 295 296 297 294 294 291 291 288 285 286 288 289 294 295 292 295 295 295 292 292 291 291 292 291 290 290 290 290 290 291 292 292 292 293 294 294 295 295 295 295 295 295 295 295 296 296 297 298 297 298 301
323 321 319 318 318 311 315 314 313 313 312 311 309 307 306 305 304 302 301 301 299 298 298 298 297 297 296 295 294 293 293 294 294 294 296 294 293 295 292 292 292 289 289 286 285 290 290 293 292 292 292 291 292 291 291 291 292 290 290 289 289 289 290 291 291 291 292 292 294 294 294 295 294 294 294 293 294 295 296 296 297 298 298 300 302
320 318 316 316 314 315 315 313 313 310 311 310 308 306 305 302 301 299 299 298 297 296 296 296 296 295 294 293 294 292 293 293 292 292 293 293 293 292 291 294 292 291 289 288 285 290 291 288 290 292 290 291 291 290 291 291 291 290 289 289 289 289 290 289 290 291 291 292 292 293 294 294 294 293 293 293 293 294 295 296 296 296 297 300 300
319 316 313 312 312 312 311 310 308 308 308 307 306 304 302 300 298 297 297 297 295 294 294 294 295 294 293 292 292 292 292 291 291 292 291 291 292 291 293 292 292 291 289 287 286 285 290 289 290 290 291 290 290 289 289 290 291 289 289 289 288 288 288 287 289 289 290 291 291 292 292 293 292 292 293 292 293 294 295 296 296 296 297 298 299
317 313 311 310 309 309 308 307 306 305 305 304 303 301 299 297 296 296 295 294 293 292 292 293 293 292 292 291 291 291 292 291 290 290 290 289 291 291 291 290 291 291 290 287 285 284 287 291 290 289 290 290 288 289 288 288 288 288 288 288 288 287 287 287 287 288 289 289 290 291 291 291 291 291 291 291 292 292 293 295 294 294 296 297 297
312 311 309 308 307 307 307 306 305 305 304 302 300 299 297 295 295 296 294 293 292 291 291 290 292 292 291 290 289 290 291 290 290 289 289 289 290 289 289 288 289 289 290 287 285 284 283 287 287 289 288 289 286 289 287 286 286 287 286 287 287 287 286 286 285 286 288 289 290 290 290 290 290 290 290 290 291 291 293 294 293 294 295 296 295
308 310 308 307 306 306 305 304 304 303 303 300 299 298 295 294 293 294 293 292 291 290 289 290 290 291 290 289 288 289 290 289 288 288 289 289 289 288 288 288 287 288 288 287 285 283 283 284 286 286 286 287 286 286 287 287 287 286 285 285 286 286 286 285 285 286 288 289 290 289 289 289 289 289 290 290 290 291 292 292 292 292 294 295 294
305 303 304 305 304 305 304 302 302 301 300 299 297 296 295 293 292 292 292 291 291 290 290 290 290 290 289 288 288 288 289 288 287 287 288 288 288 288 288 288 287 287 287 286 285 284 283 282 284 284 286 285 285 287 287 286 285 284 285 285 285 284 284 285 285 285 286 288 288 288 288 288 288 289 289 289 290 290 291 291 291 292 292 293 294
303 301 299 300 301 302 301 301 300 300 299 298 297 295 293 292 292 291 291 291 290 290 290 289 289 290 289 288 288 288 288 287 287 287 286 287 287 287 287 287 287 287 286 286 285 285 283 282 283 285 285 285 286 285 285 283 283 283 284 283 283 283 283 284 284 285 286 287 286 286 286 286 287 287 288 288 289 289 290 290 290 290 291 292 292
299 299 300 299 299 299 300 300 299 299 298 297 295 293 292 292 291 291 291 291 290 290 290 289 289 289 289 288 287 288 288 287 287 286 286 286 287 286 286 286 286 286 285 285 285 284 284 283 283 283 284 283 283 283 284 283 282 281 281 282 282 282 282 281 282 284 284 284 283 283 284 284 285 286 286 287 288 288 289 289 289 289 290 291 292
297 296 297 298 297 298 299 299 298 297 296 295 293 292 291 291 290 290 290 289 289 289 288 289 288 288 288 287 287 287 287 287 286 286 286 286 286 286 285 285 285 285 284 285 284 283 283 282 283 283 282 283 283 281 283 283 282 282 279 278 278 281 281 281 280 282 283 282 283 284 283 283 284 283 284 285 286 287 287 287 288 289 290 291 291
297 297 297 297 295 295 294 295 296 295 295 293 292 291 291 290 290 289 289 288 288 287 287 287 287 287 287 287 287 287 287 287 287 287 286 286 286 285 285 284 285 284 284 284 283 283 282 282 282 281 282 281 281 282 283 282 280 280 280 278 277 278 279 280 281 279 280 280 279 279 281 282 282 282 284 284 284 285 285 285 286 287 289 291 291
296 297 298 298 296 295 293 293 293 293 293 292 291 290 290 289 289 289 288 288 287 286 286 286 286 286 286 286 286 285 284 283 284 285 285 285 286 285 285 285 284 284 283 283 282 282 281 281 280 281 280 280 280 280 279 279 278 278 279 279 278 279 279 279 279 280 280 279 278 278 278 279 278 279 279 280 281 282 282 284 285 287 290 291 290
293 292 293 294 295 295 293 292 292 292 291 291 288 290 290 289 289 289 288 287 286 286 285 285 284 285 285 285 283 282 282 283 283 283 283 283 283 285 284 285 283 282 281 280 279 280 279 279 279 279 278 278 279 279 278 279 280 279 278 278 277 278 278 277 278 277 279 278 277 276 277 279 278 278 278 278 280 281 280 281 283 286 288 290 290
291 291 292 292 291 292 292 291 290 290 290 289 288 291 291 291 289 288 287 286 286 285 284 284 283 283 283 282 282 282 281 282 282 283 283 283 283 283 283 283 283 282 280 279 279 280 279 278 278 278 278 278 278 278 279 279 279 278 278 278 278 277 276 274 272 276 278 278 277 275 276 278 278 276 277 277 278 279 281 281 286 287 288 289 289
289 290 290 291 291 291 291 290 289 289 289 288 290 291 291 291 289 288 287 286 286 285 284 284 283 283 282 281 281 281 281 281 281 282 282 282 283 283 283 283 282 282 282 280 279 278 278 278 278 278 278 277 278 279 279 279 278 278 278 278 277 276 275 274 274 273 277 279 276 275 274 277 277 277 276 277 278 279 280 283 286 287 288 288 289
289 289 289 289 289 289 289 289 288 288 287 289 290 291 290 290 290 288 287 286 285 285 284 284 283 283 282 282 281 282 282 282 282 282 281 281 283 283 283 282 282 282 282 282 282 281 280 278 278 278 278 279 278 279 280 279 279 277 277 277 277 276 275 274 274 275 276 278 276 274 272 275 277 275 275 277 278 278 280 283 285 286 287 287 288
288 288 288 288 288 288 288 288 287 287 287 288 290 290 290 290 290 288 286 286 285 285 284 283 283 283 282 282 281 280 280 281 281 281 281 282 282 282 282 282 281 281 281 282 281 281 281 280 279 278 280 281 279 280 280 280 278 277 277 275 276 275 274 274 276 276 276 278 275 273 272 274 276 275 274 276 277 278 279 282 284 285 286 286 287
287 287 288 287 287 287 287 287 287 286 286 289 290 290 290 290 291 288 286 285 284 284 284 283 283 283 282 282 281 281 280 280 281 281 282 282 283 282 282 281 280 280 281 281 281 281 281 281 281 281 281 281 280 280 280 280 280 279 278 276 276 276 276 277 276 276 276 276 274 274 270 273 275 274 274 275 276 277 279 281 282 284 284 285 286
287 287 287 287 286 286 287 287 286 286 286 289 289 289 290 290 289 286 285 284 283 283 282 282 282 282 282 282 281 281 280 280 282 283 283 283 282 281 280 279 279 279 279 281 282 282 281 281 281 281 281 281 282 281 281 280 280 279 278 278 277 276 274 272 271 273 273 275 275 274 272 272 274 273 273 276 276 275 278 278 280 282 283 284 284
286 286 286 286 286 286 286 286 286 286 286 288 289 289 289 289 287 285 284 284 283 282 282 282 282 281 281 281 281 280 280 280 282 283 284 283 281 280 278 278 278 278 277 278 281 282 282 282 282 283 282 282 282 282 282 282 280 279 277 275 274 274 271 270 271 271 271 273 275 275 272 271 273 273 273 274 275 275 277 277 277 280 281 282 282
286 286 286 286 286 286 286 286 287 286 286 287 288 289 289 288 286 284 284 283 282 281 281 281 281 281 281 282 282 280 280 280 283 284 284 283 280 279 278 278 277 276 277 279 280 281 282 282 281 281 280 280 280 281 281 280 279 278 275 272 274 273 271 271 269 270 271 272 273 275 272 271 273 274 272 273 274 276 277 275 275 276 278 278 280
286 286 286 285 285 286 286 286 286 286 286 286 288 288 288 287 285 284 284 283 281 281 280 280 280 280 280 280 281 280 280 281 283 284 284 282 280 279 279 278 276 276 277 279 279 278 277 276 275 275 276 278 278 277 276 278 278 277 277 275 275 273 270 270 270 269 268 270 272 275 271 271 271 273 272 270 270 273 276 275 274 274 274 274 274
Wind_Speed
4 4 4 3 3 3 2 2 2 2 2 2 1 2 2 1 2 3 3 3 3 4 3 5 4 4 4 4 4 4 4 4 4 5 4 3 3 8 8 5 7 9 11 12 13 13 13 14 14 13 14 15 15 15 15 15 16 17 20 20 20 18 20 21 21 20 20 21 21 21 21 22 22 22 22 23 23 23 23 24 24 24 24 24 24
4 4 4 4 4 3 3 2 2 2 1 2 1 2 2 2 2 3 3 4 4 3 3 4 5 4 3 3 4 5 4 3 4 4 3 4 3 6 8 5 6 9 11 12 13 13 13 14 14 14 15 15 15 15 16 16 18 19 18 18 18 19 20 20 20 20 20 21 21 21 22 22 23 23 23 23 23 23 24 24 24 24 24 25 25
4 4 4 4 4 4 3 3 2 3 2 2 1 2 3 3 2 4 5 5 5 5 4 3 4 4 3 3 4 4 4 4 4 3 4 3 2 2 7 7 6 7 10 11 13 13 13 14 14 14 14 14 15 15 15 16 17 17 18 19 19 19 19 20 20 20 20 21 21 21 22 22 23 23 23 24 24 24 24 24 24 25 25 25 25
3 4 3 4 3 3 3 2 3 1 2 2 2 3 3 4 3 3 4 5 5 4 4 4 3 3 3 4 3 3 3 3 3 4 4 2 3 3 3 4 7 7 7 9 13 13 13 14 14 15 14 15 15 16 16 17 17 18 18 19 19 19 20 20 20 20 20 21 21 21 21 22 22 23 24 24 24 24 24 24 24 25 25 25 25
4 4 3 3 3 2 3 2 3 2 2 1 2 4 4 4 4 2 3 3 4 3 2 3 3 3 3 3 3 2 3 3 4 4 3 3 3 4 3 4 3 7 8 7 11 14 14 14 15 15 15 16 16 17 17 17 17 18 18 19 20 20 20 20 20 20 20 21 21 21 22 23 23 23 24 24 24 24 24 24 24 25 25 26 26
5 5 4 4 3 3 3 3 2 1 3 3 4 4 4 3 3 3 3 4 3 3 3 3 3 3 3 3 2 3 3 2 3 3 2 3 3 3 3 4 5 5 4 7 11 12 14 14 15 16 16 17 17 17 17 17 17 18 19 19 20 20 21 21 21 21 21 21 21 22 23 23 23 23 24 24 24 24 24 25 25 25 26 26 27
5 5 4 4 4 4 3 3 3 2 3 4 3 4 3 3 2 3 4 3 2 1 2 2 3 3 3 3 3 3 2 3 3 2 3 2 4 3 4 4 5 4 3 2 7 11 10 12 14 16 16 16 17 17 17 18 18 18 19 19 20 20 21 21 21 21 21 21 21 22 22 23 23 23 24 24 24 25 25 26 26 26 27 27 28
6 5 5 4 4 5 4 4 1 2 5 3 1 3 3 1 2 2 3 3 3 2 2 3 3 3 3 3 3 3 3 3 3 2 3 3 3 4 4 4 4 3 4 3 4 6 8 6 9 14 15 15 16 17 18 18 18 19 20 20 20 20 21 20 20 20 20 21 22 22 23 23 23 23 24 24 24 25 26 26 26 27 28 29 30
7 6 5 5 5 5 4 4 4 4 4 3 2 2 1 0 2 2 2 3 2 3 3 4 3 3 4 3 3 2 2 3 2 2 3 4 4 4 3 4 4 4 4 4 4 4 5 6 7 10 11 13 15 16 18 18 19 19 20 20 19 20 20 20 21 21 21 21 22 22 22 22 23 23 24 24 26 27 28 28 29 29 29 29 30
7 7 6 6 5 4 5 4 4 4 3 3 3 2 1 2 3 2 2 2 3 4 4 4 4 3 3 3 3 2 2 2 2 2 3 4 4 3 4 4 4 4 4 3 4 4 4 5 8 8 11 10 14 15 17 19 18 18 19 19 19 20 21 21 21 21 21 21 21 22 22 23 23 24 24 25 26 27 28 29 29 29 29 30 30
8 8 7 6 6 5 5 5 5 5 4 4 4 3 1 2 4 4 2 0 2 2 3 4 5 3 2 2 2 2 2 2 1 3 3 3 3 3 3 4 3 3 4 4 4 4 4 3 4 3 5 9 11 13 15 18 17 17 19 20 20 21 22 22 22 21 21 21 22 22 23 23 24 24 25 25 26 28 28 28 27 27 30 30 30
8 8 7 6 5 6 6 5 5 5 5 5 5 3 3 4 5 4 2 2 1 2 2 4 4 4 2 2 1 3 2 2 2 3 3 2 3 3 4 4 3 3 4 3 3 3 3 4 3 3 4 4 8 8 12 16 15 14 17 20 21 21 22 22 22 21 21 22 22 23 23 24 24 25 25 26 26 27 27 28 29 29 30 30 32
8 8 8 7 6 6 7 6 6 5 5 6 5 3 3 3 2 2 2 3 1 2 2 3 5 2 0 2 2 3 3 2 2 3 3 3 3 3 3 3 4 4 3 2 2 3 3 4 3 3 4 4 4 6 7 12 11 13 16 20 22 23 23 22 22 22 22 22 23 23 24 24 25 25 26 26 27 27 28 28 30 30 32 32 32
9 9 8 8 7 6 7 6 6 6 6 5 3 3 3 2 1 2 2 3 2 1 1 4 4 2 2 1 4 3 3 2 2 4 3 3 3 3 3 4 4 3 2 2 2 2 3 3 3 3 3 3 4 3 4 6 8 10 15 20 22 22 23 22 22 22 22 23 23 24 24 25 25 26 27 28 29 30 30 31 32 31 32 33 34
10 10 8 8 8 7 6 6 7 6 5 5 5 5 5 5 5 4 3 3 2 1 1 2 3 3 2 2 5 5 3 3 2 4 4 3 2 3 3 3 5 3 2 2 2 2 2 2 2 3 3 3 3 3 4 5 5 7 14 19 21 22 22 21 21 22 23 23 24 25 25 26 26 28 28 29 29 31 32 32 32 32 33 34 35
11 10 8 9 8 8 6 6 6 5 5 6 6 6 6 5 5 5 4 4 4 4 2 1 3 3 3 3 1 2 6 4 4 4 4 4 3 4 4 4 3 3 2 3 3 2 2 3 3 3 3 3 3 3 3 3 6 5 10 13 20 21 22 21 22 23 24 25 26 26 26 27 27 28 29 30 31 32 33 33 33 34 34 34 34
9 10 9 10 8 7 7 6 6 6 6 7 7 7 6 5 5 6 7 4 4 4 2 1 2 2 3 2 3 4 3 4 2 5 5 5 3 4 3 4 4 4 3 2 2 2 3 3 3 3 2 2 2 3 3 4 4 5 7 12 19 21 22 22 22 24 24 25 26 27 27 28 29 29 30 31 32 33 34 33 34 35 34 35 35
9 11 10 9 9 9 8 8 8 6 7 7 5 4 6 5 6 6 5 4 4 3 4 3 3 0 1 3 3 3 1 1 3 3 3 3 4 4 4 4 3 2 3 3 3 2 3 2 3 3 2 2 3 3 3 4 5 5 5 12 22 21 22 22 23 24 25 26 27 28 28 29 29 30 31 32 32 33 33 34 35 36 36 36 36
10 11 11 10 9 8 8 8 8 7 4 4 4 5 5 5 5 5 4 3 2 4 4 3 2 2 1 2 3 3 3 1 2 1 3 3 4 2 4 3 2 1 2 3 2 2 2 2 2 2 2 2 2 3 3 4 5 6 10 19 21 22 22 23 23 24 25 26 27 27 28 29 29 30 31 32 33 34 34 34 34 35 37 36 36
11 10 9 8 7 8 8 8 7 4 4 5 4 4 5 4 6 5 3 3 4 4 4 4 4 4 2 3 3 3 3 4 3 2 1 1 1 3 5 3 1 1 1 2 2 2 1 1 1 2 2 3 3 3 4 4 5 6 8 20 21 22 22 22 22 22 23 25 26 27 28 29 30 31 32 33 33 34 34 34 35 36 37 37 37
11 10 10 9 7 7 7 7 4 6 6 6 6 7 6 5 6 6 6 4 5 4 4 5 5 5 5 3 3 3 3 3 2 1 1 1 1 1 2 2 1 2 1 2 3 2 1 1 1 2 3 3 3 3 3 4 5 5 7 17 19 21 22 21 21 20 21 23 25 27 28 29 30 31 31 32 33 33 34 35 35 36 37 37 37
9 8 7 9 9 7 6 7 8 8 7 7 7 7 8 7 6 6 5 5 3 4 4 4 4 4 4 4 4 4 3 2 2 2 1 0 0 2 2 2 2 2 1 0 3 4 2 1 2 2 2 2 2 3 3 4 5 4 7 15 17 20 21 20 20 21 22 23 25 26 27 28 29 30 31 32 33 34 34 34 35 36 37 38 38
7 7 7 8 9 7 7 8 9 8 8 8 7 5 4 5 4 3 5 6 4 5 4 1 3 3 3 4 5 5 4 4 5 4 2 2 2 2 2 1 3 4 2 3 2 3 2 1 1 1 2 2 2 3 3 4 6 5 9 13 17 20 20 19 20 21 21 23 25 26 26 27 28 30 31 33 33 34 34 34 34 35 36 37 38
10 9 9 7 7 8 8 8 7 8 9 8 8 6 5 5 5 5 6 6 5 5 4 4 4 4 3 2 2 1 1 1 2 2 3 1 1 2 2 1 3 3 2 2 3 3 2 2 0 1 0 1 2 2 2 4 5 8 6 11 17 20 18 18 20 20 22 24 24 25 26 27 28 29 31 32 33 33 34 34 35 35 36 37 36
8 8 7 9 7 7 6 6 7 8 7 7 7 7 6 5 5 6 6 7 6 7 6 6 6 6 4 3 2 2 2 2 2 2 1 1 1 2 2 2 3 3 2 2 2 3 3 2 0 0 0 1 1 1 3 4 4 6 6 9 17 17 17 18 20 21 23 23 24 24 25 26 28 29 30 31 32 33 33 34 35 36 37 37 38
10 9 9 9 8 8 7 6 6 6 7 7 8 7 5 7 6 7 9 8 7 8 6 6 4 4 4 4 3 3 3 2 2 1 2 2 2 2 2 2 4 3 2 1 3 1 2 3 1 0 1 2 1 2 3 4 5 6 6 9 12 14 15 16 18 21 21 21 22 24 25 26 28 29 30 31 31 32 32 33 34 35 36 36 37
9 8 10 11 9 8 8 7 6 6 6 6 4 6 7 8 7 8 8 6 7 6 6 6 6 6 4 4 4 3 3 2 1 1 1 1 0 1 1 2 1 2 1 1 0 3 1 0 1 0 1 2 2 2 3 4 6 5 7 8 7 11 12 15 20 20 20 20 22 23 25 26 28 29 30 30 31 31 32 33 33 35 35 36 36
9 10 11 12 10 8 9 7 7 7 7 7 8 7 7 8 8 8 7 4 7 7 6 6 6 6 5 5 4 4 2 2 1 1 1 1 0 1 1 2 2 2 2 1 1 2 3 0 1 1 2 2 2 2 4 6 4 5 8 6 6 7 10 18 19 18 18 19 21 23 25 26 27 28 29 29 31 31 32 32 32 34 34 34 35
8 9 9 10 10 11 9 9 8 8 7 7 7 7 8 7 7 7 7 6 6 7 6 6 6 6 5 4 4 4 3 3 2 2 1 0 0 0 1 1 1 2 3 2 2 2 0 2 1 2 4 1 3 3 4 4 3 4 6 6 6 4 11 18 16 16 18 20 23 24 25 26 27 28 29 29 30 30 30 30 30 31 33 34 35
10 10 10 11 11 12 11 9 9 9 9 9 9 9 8 6 7 7 6 7 6 5 5 6 6 5 5 4 4 3 4 2 3 2 1 0 0 0 1 1 1 1 1 2 3 2 2 2 2 2 3 4 3 4 4 4 4 6 5 5 5 6 14 14 15 17 18 20 22 25 25 26 26 28 28 28 29 29 29 30 31 33 34 35 37
9 10 10 11 11 11 10 9 8 9 8 8 9 8 8 6 7 6 6 6 6 6 5 5 5 5 5 5 3 4 3 4 4 2 1 1 1 0 0 0 1 1 1 1 1 1 3 3 2 3 3 4 4 5 3 3 4 6 5 5 5 9 10 8 13 16 18 21 23 25 25 26 26 27 28 28 28 28 28 30 31 33 34 35 36
10 11 11 11 11 11 10 10 8 7 7 7 8 8 7 6 6 5 6 6 7 7 6 4 4 5 5 5 4 4 4 3 3 2 2 1 1 0 0 0 0 1 1 2 3 6 3 4 4 4 4 5 5 5 5 4 5 6 5 5 7 8 7 7 11 16 17 20 23 24 25 25 26 27 27 27 27 27 28 29 30 31 32 32 34
9 11 11 12 11 10 11 11 10 9 8 8 7 7 7 7 6 6 6 7 8 6 6 6 4 5 5 5 4 4 3 3 3 2 2 2 1 0 1 0 0 1 0 1 3 6 5 2 3 4 5 4 5 4 6 6 5 5 7 6 6 6 7 7 7 11 15 19 22 24 25 25 25 25 25 26 26 26 27 29 29 30 30 30 31
10 11 12 10 10 11 11 11 10 10 9 8 8 8 8 9 7 6 7 8 8 7 7 7 5 4 4 5 5 4 2 3 3 3 2 2 1 1 1 0 1 0 0 1 3 3 6 4 3 4 4 4 6 4 6 7 6 6 7 5 4 6 7 7 8 8 16 18 21 23 24 25 26 25 25 24 25 26 28 29 28 30 31 30 29
8 10 12 12 13 12 10 10 10 10 9 10 9 8 9 10 9 8 7 8 8 9 8 7 6 5 5 5 5 4 3 3 3 2 2 2 1 1 1 0 0 0 0 1 2 3 4 5 5 4 4 5 5 6 6 4 5 6 6 5 6 6 5 6 7 7 15 21 22 21 22 24 24 25 25 24 24 25 27 28 28 29 30 29 29
10 7 8 10 10 12 12 11 11 10 10 9 9 8 10 10 10 9 8 7 7 8 8 8 7 6 6 6 5 5 4 4 3 3 2 2 2 2 2 1 1 1 1 1 2 3 4 6 3 5 5 6 5 5 4 5 6 6 5 4 5 6 8 8 7 5 9 18 20 20 21 22 22 22 23 24 24 25 26 27 28 29 29 29 28
9 9 8 7 8 9 10 12 11 11 10 10 10 9 8 7 8 8 8 7 7 7 7 7 6 6 6 6 6 5 4 5 4 3 3 2 2 2 1 1 1 1 1 2 2 2 3 6 6 4 4 4 4 5 5 7 7 4 4 6 6 5 6 7 8 9 12 15 15 18 20 20 20 21 22 22 22 24 26 26 27 29 29 28 28
8 8 13 11 10 9 9 11 11 10 10 10 10 9 9 8 8 7 7 7 7 7 7 6 5 4 5 6 6 5 5 5 5 4 4 3 2 2 2 1 1 1 2 2 2 2 3 5 5 6 3 5 5 4 4 6 9 9 7 5 4 5 8 8 7 8 8 8 7 9 14 16 19 24 23 22 21 23 24 25 25 29 30 27 28
9 8 6 10 8 9 8 9 11 11 11 10 10 10 9 9 9 9 8 7 7 7 6 6 5 4 5 5 5 4 4 3 4 5 5 4 3 2 2 2 1 1 1 1 1 2 3 4 4 4 4 3 4 6 5 6 6 6 9 13 9 6 5 8 9 8 7 6 9 15 14 15 16 14 18 20 21 23 23 23 24 28 27 25 27
9 10 11 11 8 7 6 6 8 10 11 10 10 10 10 10 9 8 8 8 8 7 7 6 5 4 5 5 4 4 4 3 4 4 4 4 3 3 2 2 1 1 1 1 2 2 2 3 3 4 4 5 4 3 5 6 7 6 6 8 12 14 12 9 7 9 7 8 9 8 9 10 11 14 16 17 19 22 22 21 22 27 28 26 26
6 7 8 11 11 10 7 7 7 8 10 11 10 11 11 10 9 9 9 9 9 9 7 6 5 5 5 4 4 3 5 6 8 6 5 3 2 3 3 2 1 0 0 1 2 2 2 3 4 3 4 4 4 6 7 7 7 9 9 8 9 9 10 10 9 7 5 8 10 9 7 6 9 9 8 8 10 16 15 20 17 24 28 27 27
4 4 4 5 10 12 11 10 9 8 8 7 11 17 13 11 10 9 8 8 9 9 9 8 6 5 5 4 5 9 8 7 7 7 6 4 4 2 2 1 1 0 0 1 1 1 1 2 2 4 4 3 5 5 5 5 6 6 8 9 10 11 10 11 7 3 5 7 12 12 10 7 8 8 7 8 8 10 9 10 13 18 23 27 27
6 6 6 7 5 7 11 12 12 9 8 7 15 16 16 16 11 10 10 9 8 8 8 8 8 7 6 6 5 6 7 7 6 8 7 6 5 4 3 3 2 1 1 1 1 0 1 2 2 2 3 5 5 4 5 6 6 7 8 9 9 10 10 11 13 11 3 9 10 10 10 7 8 9 8 8 8 9 10 11 22 24 24 24 26
6 6 5 5 8 7 8 10 11 10 9 12 17 17 17 17 13 10 9 9 8 8 8 8 7 7 7 7 6 5 5 7 6 6 6 7 7 6 5 4 3 3 3 2 1 1 1 2 2 3 4 4 5 6 5 6 7 8 7 7 7 8 9 10 9 11 9 9 11 10 11 7 6 8 8 8 8 8 10 17 24 24 24 24 24
8 9 9 7 7 8 9 11 11 10 9 14 17 17 17 16 15 12 8 9 9 8 8 8 8 8 7 7 6 5 3 5 7 6 6 6 7 7 5 4 4 5 4 4 4 3 2 2 3 5 5 5 6 5 5 6 7 8 7 7 7 7 7 9 10 11 12 10 9 9 10 8 7 8 8 8 8 9 10 15 23 23 23 23 23
8 8 8 9 8 10 10 10 10 9 9 13 15 16 16 16 16 11 8 9 8 8 8 8 7 8 8 8 7 6 6 6 5 6 6 6 6 6 6 5 4 6 6 6 5 6 6 4 5 5 6 5 6 7 6 6 7 7 8 7 7 8 8 9 11 11 10 7 6 8 9 6 6 8 8 8 8 9 7 13 21 22 22 22 22
8 9 9 8 8 7 9 7 8 10 9 15 12 13 12 12 12 11 8 7 7 7 6 6 7 7 7 7 7 7 8 7 6 8 7 6 6 5 3 2 2 1 2 2 3 3 3 4 5 6 6 5 6 7 7 6 6 7 6 7 7 8 8 7 7 7 7 4 4 6 6 9 7 8 8 8 8 8 6 10 17 20 21 20 21
3 3 3 4 8 9 8 10 9 9 9 15 13 14 15 14 14 8 8 8 8 7 6 6 6 5 5 6 6 7 8 7 9 12 8 5 4 4 4 2 2 2 2 2 3 3 4 5 5 6 6 6 9 8 8 7 5 4 5 5 5 5 6 7 7 6 5 4 6 5 7 8 6 8 9 7 8 7 6 4 12 19 20 19 19
5 5 5 6 6 8 8 8 9 9 10 14 16 15 16 17 11 7 7 6 6 7 7 6 5 5 5 6 6 7 7 7 11 13 10 7 5 6 5 4 3 2 2 2 6 8 9 10 11 11 12 13 12 12 11 11 8 5 5 6 5 5 6 7 7 5 6 6 5 3 5 7 7 8 9 8 8 8 4 4 5 13 18 19 19
6 5 5 5 5 6 8 8 10 10 9 13 16 15 17 16 12 9 8 8 7 6 5 6 5 5 5 7 7 7 7 7 14 14 13 9 6 7 6 6 5 4 4 3 3 3 7 9 10 10 11 10 10 10 9 8 7 5 4 5 5 5 6 6 7 7 7 6 0 4 5 7 7 7 8 8 8 4 4 2 5 7 13 13 19
5 4 5 6 6 5 6 7 9 10 9 11 15 14 16 14 11 7 8 8 9 7 6 6 5 4 5 6 9 7 8 9 16 14 14 10 6 7 7 7 6 6 5 3 3 3 2 2 2 2 4 5 4 3 3 7 7 6 4 4 3 4 5 6 7 7 6 3 2 7 5 6 8 7 7 7 5 6 3 3 3 5 6 7 8
Wind_Direction
170 174 171 176 153 173 172 155 156 148 168 171 199 229 247 292 300 320 328 320 310 311 341 312 322 324 339 3 343 335 337 335 355 352 353 351 9 88 73 35 24 26 28 26 26 24 21 18 16 15 14 15 13 10 9 6 6 13 17 16 16 14 19 19 16 15 14 13 12 10 8 6 3 1 358 357 355 352 350 348 346 343 342 340 338
170 170 176 162 164 163 173 152 186 159 190 233 196 265 278 308 296 295 300 302 305 301 313 312 312 325 3 357 328 330 336 351 353 4 356 359 8 111 109 82 40 40 34 33 31 26 24 21 20 19 20 16 16 16 16 14 17 20 19 21 20 20 21 19 18 15 14 13 11 9 6 4 2 359 357 355 353 350 347 345 342 340 338 337 335
165 176 175 163 170 170 184 157 186 199 207 258 267 281 291 277 335 318 311 314 310 312 305 317 305 323 14 336 320 323 337 359 359 9 1 11 8 28 129 119 91 62 46 43 36 29 26 26 26 22 21 19 19 22 21 23 25 27 26 26 24 25 23 20 18 16 15 12 9 7 4 2 359 356 354 351 349 346 343 341 338 336 334 333 331
177 179 180 179 170 191 186 188 230 207 218 259 299 280 296 311 311 295 298 305 313 312 324 316 320 332 339 308 326 333 339 359 9 13 23 357 4 4 28 123 137 101 86 58 43 34 29 30 28 25 24 24 24 27 28 29 32 30 26 26 26 24 23 20 17 14 13 10 7 4 2 358 355 351 349 346 343 341 339 336 334 332 330 328 327
174 182 202 179 201 197 213 212 245 234 263 52 302 280 267 263 267 262 262 298 288 297 300 297 338 316 306 315 325 318 354 355 17 20 8 11 6 13 29 23 85 142 115 85 60 39 30 32 33 28 30 30 30 31 31 32 33 31 27 27 25 22 21 18 14 12 10 7 4 2 358 353 349 346 343 340 338 336 335 333 331 330 328 327 325
187 176 194 205 185 208 236 231 243 199 241 250 245 254 264 287 290 282 306 293 313 327 340 335 314 322 319 328 292 3 340 31 39 35 350 11 20 29 28 30 25 22 91 102 70 52 32 35 35 32 33 33 34 33 34 34 34 32 28 26 23 21 19 16 13 10 8 5 1 357 352 347 344 341 339 337 335 334 332 331 329 327 326 325 323
195 189 199 216 203 219 209 237 243 256 279 259 269 272 269 264 281 321 312 306 309 347 307 292 307 330 340 333 347 6 334 34 43 36 9 10 45 37 35 38 25 25 13 67 99 67 48 35 40 35 34 35 35 36 35 35 33 32 27 22 20 19 18 15 11 7 5 1 355 350 346 343 340 338 336 335 334 333 332 330 328 327 325 323 321
190 210 198 208 222 228 229 237 181 239 249 272 227 254 259 305 347 307 303 314 331 339 322 318 351 347 336 336 339 4 333 40 48 47 14 38 44 36 47 38 33 21 19 30 31 93 70 55 52 43 37 36 37 38 36 33 32 31 25 19 19 18 16 12 7 3 359 353 349 345 342 340 338 337 335 334 333 332 330 329 327 325 323 322 321
200 202 222 218 228 243 237 219 198 230 254 246 236 255 277 288 292 256 290 312 309 324 339 335 339 330 334 343 348 329 350 37 61 34 60 50 40 37 45 43 44 18 28 25 25 30 92 79 88 67 45 37 38 41 38 32 30 29 25 19 18 16 12 8 2 358 353 348 344 342 340 339 337 336 335 334 332 330 329 327 326 324 322 321 320
201 204 218 229 230 231 236 229 206 226 250 254 246 236 287 305 287 274 282 313 319 4 345 329 320 326 327 317 343 317 60 91 82 47 60 53 52 44 32 36 37 27 22 25 26 30 24 61 118 102 65 43 41 41 41 33 28 28 24 19 15 11 7 2 357 351 347 345 342 341 340 339 338 337 336 334 331 329 328 327 326 325 323 321 320
205 207 223 221 227 227 234 220 215 226 231 225 224 214 223 256 267 273 242 335 354 349 326 308 294 299 282 321 352 47 65 80 71 47 82 60 61 63 42 29 29 30 21 24 34 20 29 25 27 25 72 70 50 43 45 38 27 28 23 17 11 6 0 355 351 350 348 346 344 342 341 340 338 337 335 333 331 331 330 328 327 325 323 323 322
208 210 214 221 223 222 225 225 217 227 229 227 223 198 219 228 239 277 267 130 136 321 292 300 300 279 339 24 78 75 81 103 91 65 102 63 60 49 41 25 20 19 26 29 33 20 29 27 27 31 23 58 71 61 64 48 28 27 25 15 6 0 356 353 352 351 348 346 344 342 341 340 339 337 335 334 333 331 330 328 327 327 326 324 322
209 210 212 214 220 221 221 217 215 219 229 230 228 224 236 256 258 198 289 292 205 194 274 302 287 260 131 146 103 93 106 179 106 92 100 73 55 55 44 25 14 9 16 34 38 37 28 33 31 28 24 12 21 44 72 63 34 24 24 14 3 358 355 352 351 350 348 346 344 343 342 341 340 338 337 336 334 332 331 330 330 329 327 325 323
208 217 215 215 219 222 221 221 209 218 222 227 229 227 227 235 261 262 244 249 253 96 53 308 258 8 338 155 140 131 131 165 130 111 108 85 77 59 41 26 10 0 355 24 50 48 40 39 36 29 27 16 13 0 24 41 27 30 23 13 1 355 353 351 349 349 347 345 344 344 343 343 342 340 338 336 335 334 334 332 331 329 327 326 324
206 213 218 216 220 221 219 219 220 218 218 217 227 239 233 217 211 237 204 218 160 72 321 321 318 327 310 262 170 165 165 172 162 128 121 92 97 79 52 31 10 356 348 29 26 37 54 47 32 36 25 20 11 357 25 44 31 66 33 13 359 355 352 350 349 348 347 347 346 346 346 345 342 340 338 337 336 335 334 333 331 329 327 325 324
214 208 210 219 218 220 221 220 223 221 227 229 227 233 218 202 195 224 199 164 197 160 163 319 309 326 211 217 111 209 166 169 142 118 112 112 99 89 55 32 8 356 2 33 15 18 44 40 23 29 20 14 10 3 19 31 15 45 41 13 357 355 352 350 348 348 349 349 348 347 346 344 341 339 338 337 336 336 333 332 330 328 326 324 321
210 210 210 218 220 221 225 222 223 225 223 231 233 218 202 193 195 204 202 231 228 134 130 99 283 346 316 259 187 208 77 100 180 142 159 141 123 114 82 45 24 357 359 23 15 3 43 31 22 18 12 5 7 20 18 24 21 10 14 2 356 355 352 349 346 348 349 349 348 347 345 343 341 338 338 337 336 334 332 330 328 326 324 321 319
210 213 213 213 221 223 223 225 226 224 220 225 230 203 189 192 190 201 206 227 280 196 147 146 228 161 352 28 8 12 57 85 235 150 137 96 137 128 89 57 41 2 354 358 17 6 38 13 21 3 1 19 17 27 11 30 26 14 19 355 355 354 350 347 346 347 348 349 347 346 343 341 339 338 337 336 334 332 330 329 326 324 322 318 316
209 214 214 211 218 219 220 224 224 226 217 214 204 198 192 186 172 196 194 186 193 252 228 172 188 168 188 54 54 45 39 345 72 322 163 170 150 135 107 93 49 23 6 350 4 32 15 10 9 357 351 27 31 29 18 25 25 18 15 357 354 350 347 346 346 346 346 345 344 342 340 338 337 336 336 334 333 331 328 326 324 321 319 317 317
213 212 212 205 209 218 216 224 222 197 149 192 184 188 169 160 174 174 164 185 213 235 203 170 200 148 173 149 119 101 73 73 43 9 354 230 183 139 136 79 29 108 59 343 355 34 349 356 9 360 356 8 33 24 20 20 10 8 7 354 350 345 344 343 342 341 342 342 342 340 337 336 337 337 335 334 332 329 327 324 323 321 317 318 316
210 210 209 207 192 211 209 208 196 193 180 181 176 161 159 170 174 166 181 199 217 229 211 181 209 144 153 140 127 104 82 75 65 345 273 244 213 32 331 22 302 152 94 356 337 356 329 329 10 7 351 5 30 23 27 17 5 12 7 350 342 339 340 338 336 337 339 342 340 338 336 337 337 336 334 333 331 328 325 325 322 320 320 318 320
196 194 185 200 202 202 200 197 203 190 183 177 166 168 167 174 178 177 192 208 214 192 205 182 204 136 158 146 152 134 126 140 191 205 216 317 286 298 310 317 324 323 127 104 325 325 333 328 358 347 346 9 24 19 26 16 359 25 355 345 334 334 335 333 333 337 342 343 339 336 336 338 337 335 334 331 329 327 327 326 325 325 324 324 324
193 187 180 188 199 196 202 197 195 170 177 164 159 159 151 167 165 186 204 223 181 191 198 142 129 130 145 165 161 172 177 183 177 190 191 174 212 246 275 238 278 293 196 138 232 283 301 272 266 359 348 11 20 21 14 1 355 29 359 336 331 331 331 330 333 339 344 341 338 337 338 338 336 334 331 330 329 329 330 329 329 328 327 327 327
189 189 190 174 179 190 192 189 178 171 174 170 159 155 149 143 157 190 204 203 177 177 175 151 155 145 157 159 146 126 101 129 137 162 180 178 190 260 262 299 267 225 237 194 175 236 236 238 190 298 17 19 45 15 4 359 345 12 358 332 325 323 327 330 335 342 343 339 337 337 338 337 335 332 331 331 332 333 332 332 331 330 329 327 326
178 172 169 170 176 182 167 173 174 182 175 174 155 158 168 166 186 189 184 186 173 175 178 171 169 159 154 126 122 127 110 90 125 148 148 97 216 239 262 251 251 272 251 182 191 191 202 205 102 301 108 75 62 24 14 351 334 349 358 325 315 318 327 331 337 342 340 337 336 336 337 336 334 332 331 334 336 334 334 333 332 331 330 328 327
173 172 166 168 172 173 163 158 161 160 151 156 177 183 186 194 187 189 178 183 177 183 170 160 149 125 128 135 130 125 123 128 139 161 161 188 204 206 262 259 237 258 244 232 163 209 142 208 146 43 109 109 62 30 9 341 326 339 357 317 311 321 327 335 339 339 338 336 335 336 338 337 334 333 334 336 337 336 335 333 333 332 331 331 333
171 164 167 176 175 159 156 151 149 149 151 149 152 184 190 204 170 188 181 172 176 165 151 147 137 139 136 127 125 122 129 133 157 131 120 216 223 207 264 298 293 249 323 286 161 208 128 31 5 175 53 84 53 5 358 335 309 357 334 310 314 315 327 339 337 342 343 340 338 339 341 338 335 335 338 339 338 337 336 333 335 334 333 337 339
177 167 170 175 172 155 157 147 149 157 168 165 170 172 180 191 179 180 161 158 165 153 143 137 130 129 121 120 124 119 119 126 116 98 86 46 297 208 251 293 332 319 325 323 350 20 122 186 308 100 51 51 13 354 332 313 311 357 318 317 317 319 340 336 334 342 341 340 341 343 341 339 337 337 339 340 339 337 336 338 338 335 338 339 340
163 170 162 175 167 158 152 148 154 160 156 158 159 161 160 164 168 160 159 162 156 146 142 135 128 127 123 128 121 124 121 113 92 86 86 131 288 343 322 340 333 304 336 336 346 344 60 139 339 111 138 40 354 338 319 315 329 342 323 319 323 329 336 329 336 339 337 341 346 345 342 340 339 340 340 340 340 339 338 339 339 338 339 342 343
171 171 166 175 172 164 159 150 156 159 161 159 154 150 156 164 161 158 156 156 142 131 127 122 127 123 120 113 118 122 126 129 108 94 120 118 99 351 16 343 338 322 333 319 310 293 317 9 352 354 15 354 347 320 311 309 341 340 323 327 327 336 327 330 341 339 340 342 344 345 342 341 340 341 341 342 341 340 341 341 342 342 342 343 342
168 167 168 173 172 171 165 160 151 153 161 155 148 150 155 150 153 146 149 152 139 127 119 119 119 122 124 124 119 122 129 110 113 122 127 174 115 107 355 27 328 352 331 286 299 306 46 321 334 10 347 338 331 313 316 327 337 326 333 330 333 325 323 339 342 341 341 343 345 343 343 343 342 343 343 344 343 342 344 343 345 343 343 343 341
174 165 168 171 174 169 159 157 150 155 158 150 148 147 147 145 147 144 153 145 132 128 121 110 122 121 125 127 131 130 130 128 130 135 136 88 62 116 96 279 140 55 333 277 256 267 322 312 321 327 344 333 323 319 324 328 327 333 338 334 334 334 345 342 340 339 342 341 341 341 344 345 344 345 344 344 343 345 344 345 347 345 344 344 342
166 167 170 171 170 168 160 157 158 158 156 151 148 144 144 142 146 142 145 140 132 124 125 118 108 123 126 127 123 118 133 141 139 148 137 112 116 148 71 342 172 125 226 278 264 279 288 319 328 322 327 330 321 325 324 328 331 341 341 341 345 349 344 343 336 333 338 339 338 341 343 344 344 346 345 345 344 345 346 348 350 347 345 344 341
171 171 170 167 170 164 165 162 160 159 159 149 149 151 146 149 142 148 150 142 132 128 128 130 129 124 128 129 129 125 121 125 138 136 132 148 175 161 160 118 346 91 48 254 269 272 288 315 316 319 310 342 312 326 330 330 335 342 341 341 354 356 343 339 334 332 336 338 341 342 342 342 342 345 345 347 346 348 350 353 353 351 348 349 346
172 173 171 169 170 165 162 157 159 158 160 157 154 155 152 155 153 154 152 146 142 141 140 141 139 135 135 138 137 132 132 143 140 120 118 144 147 147 107 114 166 60 183 237 265 271 291 304 305 308 321 324 318 323 326 330 335 338 334 341 353 347 343 340 334 333 335 337 340 342 341 340 339 340 342 346 348 351 353 353 353 353 349 349 348
166 164 165 169 169 167 159 158 161 161 161 156 153 154 155 155 156 153 147 140 139 141 141 142 144 148 147 140 143 145 158 149 143 139 150 148 164 144 152 186 187 197 212 230 237 259 291 299 311 317 315 318 316 319 322 336 337 334 342 341 357 343 341 338 339 334 335 336 336 339 337 336 336 338 341 346 350 353 355 356 357 354 351 353 357
168 158 154 159 167 169 160 161 162 164 161 156 153 150 150 150 150 147 143 140 139 137 136 140 142 148 150 148 146 157 167 149 146 153 144 160 157 153 167 171 197 198 223 228 244 267 284 286 297 303 306 308 316 314 341 341 334 336 345 352 349 348 343 335 333 333 336 340 337 337 333 332 334 337 341 345 351 355 356 356 355 353 349 349 358
163 174 162 165 168 170 168 164 162 160 155 156 152 152 150 145 144 142 139 136 132 128 130 131 137 141 147 137 145 161 169 157 153 141 144 163 155 147 164 185 193 230 244 253 252 263 276 281 294 304 319 325 325 322 355 349 339 338 342 354 336 350 344 339 340 336 336 337 340 340 333 333 337 339 340 345 352 355 357 355 352 349 347 353 1
159 163 174 160 165 164 168 162 161 156 152 149 149 148 148 147 147 144 138 132 125 122 120 123 124 125 126 136 144 159 160 148 144 155 160 159 160 167 165 170 223 228 265 276 285 280 279 291 290 302 313 324 325 324 346 351 346 346 345 339 338 350 347 340 333 336 327 327 337 336 329 326 333 335 338 342 348 353 354 353 350 348 345 359 3
167 172 169 167 159 149 147 159 160 151 150 151 149 148 148 149 148 145 143 138 131 123 118 117 119 124 123 129 141 141 141 145 150 152 159 160 151 173 152 177 212 224 269 311 301 288 291 297 310 315 324 320 319 333 334 340 340 351 8 351 331 331 335 339 336 331 327 332 336 336 331 326 335 338 341 344 347 351 349 349 345 349 353 6 5
173 182 181 163 151 147 142 145 155 152 154 158 156 153 150 151 149 146 145 142 138 133 128 123 128 128 125 122 134 123 81 79 72 71 66 55 156 167 164 164 187 194 336 311 294 294 301 314 311 322 323 323 330 339 343 351 357 341 339 340 323 322 322 324 331 328 334 339 332 326 328 333 335 336 340 340 345 349 347 346 343 348 354 5 5
145 139 155 165 159 156 153 153 155 160 162 162 157 154 155 153 152 147 143 143 142 140 138 137 135 136 131 119 93 107 116 114 115 121 120 90 41 49 144 147 173 143 200 235 273 300 313 314 318 329 323 321 330 343 337 336 337 335 333 334 328 326 327 320 311 342 339 354 337 330 327 338 337 330 343 341 341 348 347 344 343 346 355 3 5
144 148 161 159 157 157 157 157 159 164 163 157 154 154 154 152 148 151 149 145 141 142 148 150 149 146 138 125 132 134 130 133 138 141 139 141 141 115 111 84 63 141 183 227 248 292 307 308 310 311 309 308 314 338 327 333 335 338 329 326 323 328 335 336 326 324 360 355 333 321 316 334 334 337 339 339 342 346 344 346 346 347 356 3 3
151 144 161 177 151 156 158 157 160 165 163 154 157 156 157 157 157 152 149 146 150 151 154 151 147 147 145 148 153 162 169 164 153 151 155 162 167 168 165 172 185 209 231 211 218 289 301 303 301 297 302 295 311 321 326 335 330 324 321 320 323 330 328 323 315 312 320 343 326 321 314 325 329 338 333 337 342 343 336 342 349 352 357 2 4
148 158 163 162 162 157 162 163 161 159 155 155 158 158 158 158 156 150 148 150 151 155 154 152 150 153 153 155 158 166 133 139 156 158 160 174 186 186 184 174 200 208 222 239 247 248 260 267 269 277 277 295 303 310 329 327 322 312 315 318 324 324 317 307 305 309 313 326 317 323 313 318 339 341 332 334 340 336 332 341 350 354 357 0 5
162 164 164 166 161 164 167 167 162 158 154 161 154 154 154 156 157 151 148 150 150 149 153 151 152 157 162 162 161 161 162 172 176 167 176 180 180 192 191 194 196 194 210 225 232 243 245 248 257 263 277 294 297 307 320 324 314 311 316 314 322 315 310 300 303 300 300 312 331 328 304 315 345 335 330 330 334 328 324 338 349 355 358 0 6
169 171 168 165 168 165 162 165 162 162 162 161 147 147 147 146 146 146 144 143 139 140 140 143 152 158 162 164 163 160 161 173 178 178 180 183 175 177 168 177 202 219 219 212 216 210 216 239 253 270 283 295 301 302 303 304 301 305 313 309 314 305 296 299 295 291 298 321 347 326 297 314 339 329 327 328 328 323 324 336 348 354 358 360 6
153 144 156 162 163 167 168 169 167 162 160 159 149 152 153 153 146 143 147 147 142 142 137 139 144 155 163 165 160 158 164 170 177 183 184 175 164 155 165 181 209 240 245 249 258 262 257 255 260 269 280 285 288 290 291 293 303 316 314 309 296 291 314 309 303 312 305 332 321 301 306 312 331 330 320 324 324 319 319 335 346 354 356 359 5
161 165 168 171 170 168 168 173 168 157 156 165 161 159 159 156 148 150 148 142 140 139 143 144 149 158 163 167 159 158 163 170 174 181 183 177 154 164 174 185 197 215 244 252 245 244 248 256 265 273 281 286 289 289 292 298 300 308 310 305 307 332 316 308 305 318 312 319 306 22 314 305 332 329 318 323 327 306 296 335 343 351 354 356 1
169 172 161 160 165 170 171 174 171 160 164 170 166 161 161 161 159 154 155 144 144 147 142 148 153 161 166 168 165 161 166 172 176 183 181 179 168 173 174 180 196 213 230 221 221 234 253 265 273 279 285 286 287 289 294 300 300 302 296 290 314 322 299 300 302 312 310 291 268 6 330 315 326 324 321 321 313 319 330 347 351 348 354 355 354
163 156 161 161 166 170 176 174 165 164 164 170 169 163 164 162 157 156 152 148 151 159 154 158 157 154 161 173 177 171 175 173 179 183 183 182 175 180 176 182 199 210 215 203 216 241 260 278 287 296 294 291 292 303 306 296 292 291 284 287 305 300 295 296 301 311 313 312 60 27 330 320 329 324 338 330 327 307 291 353 353 348 352 352 347